Regional Weather Roundup
Issued by NWS Upton, NY

Current Version | Previous Version | Text Only | Print | Product List | Glossary On
Versions: 1 2 3 4 5 6 7 8 9 10 11 12 13 14 15 16 17 18 19 20 21 22 23 24 25 26 27
000 ASUS41 KOKX 202105 RWROKX REGIONAL WEATHER ROUNDUP NATIONAL WEATHER SERVICE NEW YORK NY 500 PM EDT SUN APR 20 2014 NOTE: "FAIR" INDICATES FEW OR NO CLOUDS BELOW 12,000 FEET WITH NO SIGNIFICANT WEATHER AND/OR OBSTRUCTIONS TO VISIBILITY. NYZ071-072-176-178-NJZ106-104-202200- NEW YORK CITY METRO AREA CITY SKY/WX TMP DP RH WIND PRES REMARKS CENTRAL PARK SUNNY 51 27 39 VRB3 30.45F LAGUARDIA APRT SUNNY 53 26 35 S10G18 30.43S KENNEDY INTL MOSUNNY 50 25 37 SE15 30.45F NEWARK/LIBERTY MOSUNNY 50 26 39 SE9 30.44S TETERBORO SUNNY 55 30 38 SW15G21 30.41F $$ NYZ177-179-078>081-202200- LONG ISLAND NEW YORK CITY SKY/WX TMP DP RH WIND PRES REMARKS FARMINGDALE SUNNY 50 26 39 S15 30.44F ISLIP MOSUNNY 51 28 41 SE14 30.43S SHIRLEY SUNNY 50 29 44 SE8 30.46S WESTHAMPTON MOSUNNY 49 27 42 SE7 30.46F MONTAUK POINT N/A 49 33 54 SE6 30.47S $$ NYZ052-065-067-202200- HUDSON VALLEY CITY SKY/WX TMP DP RH WIND PRES REMARKS WHITE PLAINS SUNNY 54 21 27 SE7 30.40F NEWBURGH SUNNY 59 27 29 SE12 30.38F MONTGOMERY SUNNY 62 25 24 S13 30.35F POUGHKEEPSIE SUNNY 62 26 25 VRB5 30.35F ALBANY PTSUNNY 62 16 16 S12G20 30.34F $$ NJZ001-105-106-008-010-013-015-019>022-104-202200- NEW JERSEY CITY SKY/WX TMP DP RH WIND PRES REMARKS NEWARK/LIBERTY MOSUNNY 50 26 39 SE9 30.44S TETERBORO SUNNY 55 30 38 SW15G21 30.41F CALDWELL SUNNY 53 27 36 S8 30.42S MORRISTOWN MOSUNNY 54 27 35 SE10G17 30.42F SOMERVILLE SUNNY 57 27 31 SE9 30.39S LINDEN FAIR 52 26 36 SE8G17 30.46S SUSSEX SUNNY 63 24 22 SE7 30.36F ANDOVER N/A 59 27 29 MISG 30.37S TRENTON SUNNY 57 27 31 E10 30.39F MILLVILLE SUNNY 55 31 39 E13G22 30.38F ATLANTIC CITY SUNNY 50 27 40 NE17G25 30.41S WRIGHTSTOWN MOSUNNY 52 28 39 E13 30.39F TOMS RIVER MOSUNNY 48 25 40 E3 30.43F BELMAR MOSUNNY 48 27 43 E13 30.43F $$ PAZ047>061-062-071-202200- EASTERN PENNSYLVANIA CITY SKY/WX TMP DP RH WIND PRES REMARKS PHILADELPHIA PTSUNNY 57 27 31 E12 30.40S ALLENTOWN SUNNY 62 29 28 E10 30.36F SCRANTON SUNNY 65 27 23 SW8 30.31F $$ CTZ002-004>006-009-010-012-RIZ004-006-007-MAZ004-011-015-202200- SOUTHERN NEW ENGLAND IN CT CITY SKY/WX TMP DP RH WIND PRES REMARKS BRADLEY INTL PTSUNNY 61 14 16 CALM 30.37F HARTFORD SUNNY 58 25 28 S12 30.39F DANBURY SUNNY 55 22 27 SE6 30.40F WTRBRY/OXFORD MOSUNNY 55 25 30 S12 30.42F BRIDGEPORT SUNNY 52 33 48 E13 30.43F MERIDEN SUNNY 55 23 28 S14 30.42S NEW HAVEN MOSUNNY 51 31 46 SE8 30.44F CHESTER FAIR 50 27 40 S10 30.44S GROTON SUNNY 48 31 51 S12 30.45S WILLIMANTIC SUNNY 54 28 36 S14G20 30.41R IN RI CITY SKY/WX TMP DP RH WIND PRES REMARKS PROVIDENCE MOSUNNY 52 30 43 S13 30.44S BLOCK ISLAND SUNNY 46 32 57 SE9 30.45F WESTERLY SUNNY 47 27 45 SE10 30.46S IN MA CITY SKY/WX TMP DP RH WIND PRES REMARKS BOSTON PTSUNNY 46 30 53 E12 30.45F WORCESTER SUNNY 55 15 20 MISG 30.38F WESTFIELD SUNNY 61 15 16 S8 30.37F PROVINCETOWN SUNNY 45 32 61 MISG 30.47F NANTUCKET MOSUNNY 47 31 53 E7 30.45S $$ ANZ330-335-338-340-345-350-353-355-202200- COASTAL MARINE OBSERVATIONS STATION/POSITION TIME SKY/WX TEMP WIND PRES VSBY WAVE AIR SEA DIR/SP/G HT/PER (UTC) (F) (DEG/KT/KT) (MB) (MI) (FT/S) NY HARB ENTRANCE 2100 44 45 VRB 12/ 14 1030.7 4S FIRE IS 2000 45 N/A 3/ 9 23SW MTP 2100 43 43 90/ 6/ 8 1030.9 3/ 9 HUDSON CANYON 2000 44 44 50/ 17/ 21 1029.4 7/ 7 EXECUTION ROCKS 2100 49 45 80/ 6/ 8 N/A WESTERN LI SOUND 2100 47 70/ 6/ 8 N/A 1 CENTRAL LI SOUND 2000 47 43 70/ 2/ 4 N/A 1 EASTERN LI SOUND NOT AVBL ROBBINS REEF 2100 45 180/ 16/ 18 N/A $$ >>>>>>>>>>>>>>>>>>>>>>>>>>>> KEY <<<<<<<<<<<<<<<<<<<<<<<<<<< > < > SKY/WX - SKY CONDITION/PRESENT WEATHER < > TMP - TEMPERATURE IN FAHRENHEIT < > DP - DEWPOINT IN FAHRENHEIT < > RH - RELATIVE HUMIDITY IN PERCENT < > WIND - DIRECTION AND SPEED IN MPH < > PRES - MEAN SEA LEVEL PRESSURE IN INCHES OF HG < > WCI - WIND CHILL INDEX < > VSB - VISIBILITY IN MILES < > HX - HEAT INDEX < > TC - TEMPERATURE IN CELSIUS < > VRB - VARIABLE WIND DIRECTION < > < >>>>>>>>>>>>>>>>>>>>>>>>>>>> KEY <<<<<<<<<<<<<<<<<<<<<<<<<<<

USA.gov is the U.S. government's official web portal to all federal, state and local government web resources and services.